Location: Doschendorf
(50.0069°N, 11.0602°E)
Time: 08:12:11
(UTC+00:00)

NOSS 3-1 (C) - Pass Details

Date: 17 November 2019
Orbit: 765 x 1444 km, 63.4° (Epoch: 11 December)

Event Time Altitude Azimuth Distance (km) Brightness Sun altitude
Rises 16:39:17 0° 210° (SSW) 3,296 7.1 -11.1°
Reaches altitude 10° 16:41:35 10° 208° (SSW) 2,419 6.2 -11.5°
Maximum altitude 16:47:05 67° 126° (SE) 975 3.4 -12.3°
Enters shadow 16:52:52 13° 47° (NE) 2,573 5.2 -13.2°
